EW0607 Weather Reports


time (UTC)temp
C
wind
direction
speed
KPH
gust
KPH
rain 1hr
cm
rain 24hr
cm
rain mn
cm
humidity
%
barometer
mb
20260509175506 33 298 1.6 0.0 0.00 0.00 0.00 9 1003.6
20260509175048 33 130 1.6 0.0 0.00 0.00 0.00 9 1003.7
20260509174525 33 109 0.0 0.0 0.00 0.00 0.00 8 1003.5
20260509174005 34 191 0.0 0.0 0.00 0.00 0.00 8 1003.5
20260509173546 35 107 0.0 0.0 0.00 0.00 0.00 8 1003.5
20260509173023 34 198 0.0 0.0 0.00 0.00 0.00 9 1003.6
20260509172503 33 163 1.6 0.0 0.00 0.00 0.00 10 1003.7
20260509172047 32 103 1.6 0.0 0.00 0.00 0.00 10 1004.0
20260509171521 33 112 1.6 0.0 0.00 0.00 0.00 10 1003.8
20260509171003 32 88 3.2 0.0 0.00 0.00 0.00 9 1003.8
20260509170551 32 102 1.6 0.0 0.00 0.00 0.00 10 1003.8
20260509170037 32 111 1.6 0.0 0.00 0.00 0.00 10 1003.6
20260509165505 33 116 1.6 0.0 0.00 0.00 0.00 10 1003.5
20260509165047 32 192 1.6 0.0 0.00 0.00 0.00 10 1003.5
20260509164535 32 360 3.2 0.0 0.00 0.00 0.00 10 1003.6
20260509164004 31 360 3.2 0.0 0.00 0.00 0.00 10 1003.6
20260509163542 31 360 3.2 0.0 0.00 0.00 0.00 10 1003.6
20260509163027 31 360 3.2 0.0 0.00 0.00 0.00 10 1003.6
20260509162605 31 38 3.2 0.0 0.00 0.00 0.00 10 1003.6
20260509162043 31 360 4.8 0.0 0.00 0.00 0.00 9 1003.6
20260509161519 31 360 4.8 0.0 0.00 0.00 0.00 10 1003.6
20260509161102 31 360 4.8 0.0 0.00 0.00 0.00 10 1003.6
20260509160541 31 360 6.4 0.0 0.00 0.00 0.00 10 1003.5
20260509160016 31 360 8.0 0.0 0.00 0.00 0.00 9 1003.6
20260509155603 31 360 9.7 0.0 0.00 0.00 0.00 10 1003.6
20260509155037 30 360 9.7 0.0 0.00 0.00 0.00 10 1003.5
20260509154513 30 360 9.7 0.0 0.00 0.00 0.00 10 1003.7
20260509154055 30 360 9.7 0.0 0.00 0.00 0.00 10 1003.7
20260509153532 30 360 11.3 0.0 0.00 0.00 0.00 10 1003.7
20260509153009 30 360 11.3 0.0 0.00 0.00 0.00 10 1003.8
20260509152550 30 360 11.3 0.0 0.00 0.00 0.00 10 1003.8
20260509152028 30 360 12.9 0.0 0.00 0.00 0.00 10 1003.8
20260509151505 29 360 12.9 0.0 0.00 0.00 0.00 10 1003.8
20260509151048 29 360 12.9 0.0 0.00 0.00 0.00 11 1003.6
20260509150524 29 360 11.3 0.0 0.00 0.00 0.00 11 1003.7
20260509150000 29 360 9.7 0.0 0.00 0.00 0.00 11 1003.4
20260509145544 29 360 9.7 0.0 0.00 0.00 0.00 11 1003.3
20260509145020 28 360 9.7 0.0 0.00 0.00 0.00 11 1003.3
20260509144602 28 360 8.0 0.0 0.00 0.00 0.00 11 1003.4
20260509144037 28 360 6.4 0.0 0.00 0.00 0.00 12 1003.4
20260509143515 28 360 4.8 0.0 0.00 0.00 0.00 12 1003.4
20260509143057 27 360 3.2 0.0 0.00 0.00 0.00 13 1003.6
20260509142534 26 360 1.6 0.0 0.00 0.00 0.00 14 1003.7
20260509142011 26 360 1.6 0.0 0.00 0.00 0.00 16 1003.6
20260509141557 25 360 1.6 0.0 0.00 0.00 0.00 16 1003.8
20260509141034 25 360 1.6 0.0 0.00 0.00 0.00 17 1003.9
20260509140512 25 360 0.0 0.0 0.00 0.00 0.00 17 1003.8
20260509135529 25 360 0.0 0.0 0.00 0.00 0.00 16 1003.4
20260509135010 25 360 0.0 0.0 0.00 0.00 0.00 15 1003.2
20260509134551 24 360 0.0 0.0 0.00 0.00 0.00 19 1003.2
20260509134026 24 360 0.0 0.0 0.00 0.00 0.00 19 1003.2
20260509133504 24 360 1.6 0.0 0.00 0.00 0.00 17 1003.0
20260509133050 24 360 1.6 0.0 0.00 0.00 0.00 17 1003.0
20260509132527 25 110 1.6 0.0 0.00 0.00 0.00 17 1002.9
20260509132012 24 108 1.6 0.0 0.00 0.00 0.00 17 1002.9
20260509131553 24 351 1.6 0.0 0.00 0.00 0.00 15 1002.8
20260509131034 23 360 4.8 0.0 0.00 0.00 0.00 17 1002.9
20260509130512 23 360 8.0 0.0 0.00 0.00 0.00 16 1002.9
20260509125544 24 360 8.0 0.0 0.00 0.00 0.00 13 1002.5
20260509125023 25 360 9.7 0.0 0.00 0.00 0.00 12 1002.1
20260509124624 25 360 11.3 0.0 0.00 0.00 0.00 12 1002.0
20260509124048 25 360 11.3 0.0 0.00 0.00 0.00 12 1002.1
20260509123527 25 360 9.7 0.0 0.00 0.00 0.00 13 1002.0
20260509123016 25 360 6.4 0.0 0.00 0.00 0.00 13 1001.9
20260509122551 25 360 4.8 0.0 0.00 0.00 0.00 13 1001.8
20260509122029 24 360 6.4 0.0 0.00 0.00 0.00 14 1001.8
20260509121515 24 360 6.4 0.0 0.00 0.00 0.00 14 1001.8
20260509121059 24 360 6.4 0.0 0.00 0.00 0.00 14 1001.8
20260509120537 24 360 8.0 0.0 0.00 0.00 0.00 15 1001.7
20260509120014 23 360 8.0 0.0 0.00 0.00 0.00 16 1001.6
20260509115600 22 360 9.7 0.0 0.00 0.00 0.00 16 1001.6
20260509115038 23 360 9.7 0.0 0.00 0.00 0.00 16 1001.6
20260509114523 23 360 11.3 0.0 0.00 0.00 0.00 15 1001.6
20260509114007 23 360 11.3 0.0 0.00 0.00 0.00 15 1001.4
20260509113552 23 360 11.3 0.0 0.00 0.00 0.00 15 1001.5
20260509113028 23 360 11.3 0.0 0.00 0.00 0.00 16 1001.4
20260509112507 23 360 9.7 0.0 0.00 0.00 0.00 16 1001.5
20260509112049 23 360 9.7 0.0 0.00 0.00 0.00 15 1001.4
20260509111529 23 360 11.3 0.0 0.00 0.00 0.00 15 1001.4
20260509111013 23 360 11.3 0.0 0.00 0.00 0.00 15 1001.4
20260509110554 23 360 11.3 0.0 0.00 0.00 0.00 15 1001.4
20260509110035 23 360 11.3 0.0 0.00 0.00 0.00 15 1001.4
20260509105511 23 360 9.7 0.0 0.00 0.00 0.00 15 1001.2
20260509105052 23 360 9.7 0.0 0.00 0.00 0.00 15 1001.2
20260509104534 24 360 9.7 0.0 0.00 0.00 0.00 15 1001.1
20260509104009 23 360 9.7 0.0 0.00 0.00 0.00 15 1001.1
20260509103555 23 360 8.0 0.0 0.00 0.00 0.00 15 1001.2
20260509103036 24 360 6.4 0.0 0.00 0.00 0.00 15 1001.1
20260509102518 24 360 6.4 0.0 0.00 0.00 0.00 14 1001.0
20260509102105 25 360 6.4 0.0 0.00 0.00 0.00 14 1000.9
20260509101553 25 360 6.4 0.0 0.00 0.00 0.00 15 1001.1
20260509101034 25 360 6.4 0.0 0.00 0.00 0.00 15 1000.9
20260509100511 24 360 6.4 0.0 0.00 0.00 0.00 15 1001.0
20260509100055 24 360 6.4 0.0 0.00 0.00 0.00 15 1001.1
20260509095536 24 360 6.4 0.0 0.00 0.00 0.00 15 1001.1
20260509095021 23 360 6.4 0.0 0.00 0.00 0.00 15 1001.0
20260509094607 23 360 6.4 0.0 0.00 0.00 0.00 16 1001.0
20260509094040 24 360 8.0 0.0 0.00 0.00 0.00 15 1000.9
20260509093518 25 360 8.0 0.0 0.00 0.00 0.00 15 1000.8
20260509093104 25 360 8.0 0.0 0.00 0.00 0.00 14 1000.8
20260509092549 25 360 8.0 0.0 0.00 0.00 0.00 14 1000.8
20260509092028 25 360 8.0 0.0 0.00 0.00 0.00 14 1000.8
20260509091513 25 360 8.0 0.0 0.00 0.00 0.00 14 1000.9
20260509091057 25 360 8.0 0.0 0.00 0.00 0.00 14 1000.9
20260509090544 25 360 8.0 0.0 0.00 0.00 0.00 14 1000.8
20260509090024 25 360 6.4 0.0 0.00 0.00 0.00 14 1001.0
20260509085510 24 360 6.4 0.0 0.00 0.00 0.00 15 1001.1
20260509085056 24 360 8.0 0.0 0.00 0.00 0.00 14 1001.1
20260509084545 25 360 8.0 0.0 0.00 0.00 0.00 14 1001.1
20260509084016 25 360 8.0 0.0 0.00 0.00 0.00 14 1000.9
20260509083555 25 360 6.4 0.0 0.00 0.00 0.00 14 1000.9
20260509083037 25 360 6.4 0.0 0.00 0.00 0.00 14 1000.9
20260509082517 25 360 6.4 0.0 0.00 0.00 0.00 14 1000.9
20260509082102 25 360 4.8 0.0 0.00 0.00 0.00 14 1000.9
20260509081538 25 360 4.8 0.0 0.00 0.00 0.00 15 1000.9
20260509081016 25 360 4.8 0.0 0.00 0.00 0.00 15 1000.9
20260509080601 25 360 6.4 0.0 0.00 0.00 0.00 14 1001.0
20260509080043 25 360 6.4 0.0 0.00 0.00 0.00 14 1000.9
20260509075515 26 360 6.4 0.0 0.00 0.00 0.00 14 1000.8
20260509075100 26 360 6.4 0.0 0.00 0.00 0.00 14 1000.7
20260509074551 26 360 6.4 0.0 0.00 0.00 0.00 14 1000.7
20260509074021 26 360 8.0 0.0 0.00 0.00 0.00 14 1000.7
20260509073605 26 360 8.0 0.0 0.00 0.00 0.00 14 1000.7
20260509073113 26 360 8.0 0.0 0.00 0.00 0.00 14 1000.6
20260509072525 26 360 8.0 0.0 0.00 0.00 0.00 14 1000.7
20260509072003 26 360 8.0 0.0 0.00 0.00 0.00 14 1000.7
20260509071549 26 360 6.4 0.0 0.00 0.00 0.00 14 1000.7
20260509071025 26 360 6.4 0.0 0.00 0.00 0.00 15 1000.6
20260509070504 25 360 6.4 0.0 0.00 0.00 0.00 15 1000.7
20260509070051 25 360 4.8 0.0 0.00 0.00 0.00 15 1000.7
20260509065528 25 360 4.8 0.0 0.00 0.00 0.00 15 1000.9
20260509065007 26 360 4.8 0.0 0.00 0.00 0.00 14 1000.9
20260509064550 26 360 4.8 0.0 0.00 0.00 0.00 14 1000.9
20260509064034 26 360 4.8 0.0 0.00 0.00 0.00 15 1000.8
20260509063517 25 360 4.8 0.0 0.00 0.00 0.00 15 1000.8
20260509063009 25 360 4.8 0.0 0.00 0.00 0.00 15 1000.8
20260509062553 26 360 6.4 0.0 0.00 0.00 0.00 14 1000.8
20260509062037 26 360 4.8 0.0 0.00 0.00 0.00 14 1000.8
20260509061522 26 360 4.8 0.0 0.00 0.00 0.00 14 1000.7
20260509061008 26 360 6.4 0.0 0.00 0.00 0.00 14 1000.7
20260509060556 26 360 6.4 0.0 0.00 0.00 0.00 14 1000.7
20260509060047 26 360 4.8 0.0 0.00 0.00 0.00 14 1000.6
20260509055523 26 360 4.8 0.0 0.00 0.00 0.00 13 1000.7
20260509055002 26 360 6.4 0.0 0.00 0.00 0.00 13 1000.7
20260509054607 27 360 4.8 0.0 0.00 0.00 0.00 13 1000.8
20260509054028 27 360 6.4 0.0 0.00 0.00 0.00 13 1000.8
20260509053507 27 360 6.4 0.0 0.00 0.00 0.00 13 1000.8
20260509053101 27 360 6.4 0.0 0.00 0.00 0.00 13 1000.8
20260509052538 27 360 6.4 0.0 0.00 0.00 0.00 12 1000.8
20260509052019 27 360 6.4 0.0 0.00 0.00 0.00 12 1000.6
20260509051501 28 360 6.4 0.0 0.00 0.00 0.00 12 1000.6
20260509051045 28 360 6.4 0.0 0.00 0.00 0.00 12 1000.6
20260509050524 28 360 6.4 0.0 0.00 0.00 0.00 12 1000.6
20260509050003 28 360 6.4 0.0 0.00 0.00 0.00 12 1000.8
20260509045548 27 360 6.4 0.0 0.00 0.00 0.00 12 1000.8
20260509045027 27 360 6.4 0.0 0.00 0.00 0.00 12 1000.8
20260509044506 27 360 4.8 0.0 0.00 0.00 0.00 12 1000.8
20260509044054 28 360 6.4 0.0 0.00 0.00 0.00 12 1000.8
20260509043532 28 360 6.4 0.0 0.00 0.00 0.00 11 1000.8
20260509043022 28 360 4.8 0.0 0.00 0.00 0.00 11 1000.8
20260509042600 28 360 6.4 0.0 0.00 0.00 0.00 11 1000.7
20260509042040 28 360 6.4 0.0 0.00 0.00 0.00 11 1000.6
20260509041525 28 360 4.8 0.0 0.00 0.00 0.00 11 1000.6
20260509041005 27 360 4.8 0.0 0.00 0.00 0.00 11 1000.5
20260509040547 28 360 4.8 0.0 0.00 0.00 0.00 10 1000.5
20260509040025 28 360 4.8 0.0 0.00 0.00 0.00 9 1000.3
20260509035510 28 360 4.8 0.0 0.00 0.00 0.00 9 1000.8
20260509035054 28 360 4.8 0.0 0.00 0.00 0.00 9 1000.7
20260509034542 28 360 4.8 0.0 0.00 0.00 0.00 9 1000.5
20260509034015 30 360 4.8 0.0 0.00 0.00 0.00 8 1000.3
20260509033557 30 360 4.8 0.0 0.00 0.00 0.00 8 1000.2
20260509033036 31 360 4.8 0.0 0.00 0.00 0.00 8 1000.0
20260509032520 31 360 4.8 0.0 0.00 0.00 0.00 8 1000.0
20260509032058 31 360 3.2 0.0 0.00 0.00 0.00 8 999.9
20260509031539 32 360 3.2 0.0 0.00 0.00 0.00 7 1000.0
20260509031018 32 360 3.2 0.0 0.00 0.00 0.00 7 999.9
20260509030603 32 360 3.2 0.0 0.00 0.00 0.00 7 999.9
20260509030047 32 360 4.8 0.0 0.00 0.00 0.00 7 999.7
20260509025529 32 360 6.4 0.0 0.00 0.00 0.00 7 1000.0
20260509025012 32 360 6.4 0.0 0.00 0.00 0.00 7 999.8
20260509024559 32 360 6.4 0.0 0.00 0.00 0.00 6 999.7
20260509024041 32 360 8.0 0.0 0.00 0.00 0.00 6 999.7
20260509023520 33 360 8.0 0.0 0.00 0.00 0.00 6 999.5
20260509023102 33 360 6.4 0.0 0.00 0.00 0.00 6 999.5
20260509022544 33 360 6.4 0.0 0.00 0.00 0.00 6 999.4
20260509022029 33 360 6.4 0.0 0.00 0.00 0.00 6 999.3
20260509021511 33 360 8.0 0.0 0.00 0.00 0.00 7 999.3
20260509021059 33 360 9.7 0.0 0.00 0.00 0.00 7 999.2
20260509020542 33 310 8.0 0.0 0.00 0.00 0.00 7 999.2
20260509020024 34 308 8.0 0.0 0.00 0.00 0.00 7 999.2
20260509015508 34 15 6.4 0.0 0.00 0.00 0.00 6 999.3
20260509015056 34 324 6.4 0.0 0.00 0.00 0.00 6 999.4
20260509014535 35 311 8.0 0.0 0.00 0.00 0.00 6 999.3
20260509014014 35 305 8.0 0.0 0.00 0.00 0.00 5 999.2
20260509013556 35 317 6.4 0.0 0.00 0.00 0.00 5 999.2
20260509013044 35 304 6.4 0.0 0.00 0.00 0.00 6 999.2
20260509012520 35 57 6.4 0.0 0.00 0.00 0.00 6 999.2
20260509012106 35 283 8.0 0.0 0.00 0.00 0.00 6 999.3
20260509011555 35 342 4.8 0.0 0.00 0.00 0.00 6 999.2
20260509011021 35 313 4.8 0.0 0.00 0.00 0.00 6 999.3
20260509010503 35 336 4.8 0.0 0.00 0.00 0.00 6 999.3
20260509010051 35 300 3.2 0.0 0.00 0.00 0.00 6 999.4
20260509005532 35 312 6.4 0.0 0.00 0.00 0.00 6 999.5
20260509005010 36 294 6.4 0.0 0.00 0.00 0.00 5 999.7
20260509004608 36 332 4.8 0.0 0.00 0.00 0.00 6 999.6
20260509004035 36 312 3.2 0.0 0.00 0.00 0.00 6 999.5
20260509003514 36 300 1.6 0.0 0.00 0.00 0.00 5 999.6
20260509003058 36 292 3.2 0.0 0.00 0.00 0.00 6 999.7
20260509002535 36 322 3.2 0.0 0.00 0.00 0.00 6 999.7
20260509002023 36 306 6.4 0.0 0.00 0.00 0.00 6 999.6
20260509001502 36 331 6.4 0.0 0.00 0.00 0.00 5 999.7
20260509001050 36 227 6.4 0.0 0.00 0.00 0.00 5 999.6
20260509000531 36 265 9.7 0.0 0.00 0.00 0.00 5 999.6
20260509000009 36 297 9.7 0.0 0.00 0.00 0.00 5 999.7
20260508235558 36 291 6.4 0.0 0.00 0.00 0.00 5 999.9
20260508235041 36 333 3.2 0.0 0.00 0.00 0.00 6 1000.0
20260508234518 36 325 6.4 0.0 0.00 0.00 0.00 6 999.9
20260508234103 36 296 8.0 0.0 0.00 0.00 0.00 5 1000.1
20260508233542 36 315 8.0 0.0 0.00 0.00 0.00 5 1000.1
20260508233021 36 258 8.0 0.0 0.00 0.00 0.00 5 1000.1
20260508232502 36 293 9.7 0.0 0.00 0.00 0.00 6 1000.1
20260508232044 36 312 8.0 0.0 0.00 0.00 0.00 6 1000.2
20260508231523 36 242 4.8 0.0 0.00 0.00 0.00 6 1000.2
20260508231008 36 257 6.4 0.0 0.00 0.00 0.00 6 1000.2
20260508230554 36 360 6.4 0.0 0.00 0.00 0.00 6 1000.3
20260508230039 36 321 8.0 0.0 0.00 0.00 0.00 6 1000.1
20260508225522 36 214 8.0 0.0 0.00 0.00 0.00 6 1000.1
20260508225102 36 290 4.8 0.0 0.00 0.00 0.00 6 1000.2
20260508224545 36 304 3.2 0.0 0.00 0.00 0.00 6 1000.3
20260508224027 36 300 4.8 0.0 0.00 0.00 0.00 6 1000.3
20260508223502 36 182 9.7 0.0 0.00 0.00 0.00 6 1000.4
20260508223053 36 311 9.7 0.0 0.00 0.00 0.00 6 1000.5
20260508222529 36 315 9.7 0.0 0.00 0.00 0.00 6 1000.6
20260508222012 36 316 6.4 0.0 0.00 0.00 0.00 6 1000.6
20260508221559 37 224 3.2 0.0 0.00 0.00 0.00 7 1000.6
20260508221041 37 327 3.2 0.0 0.00 0.00 0.00 7 1000.4
20260508220515 37 227 4.8 0.0 0.00 0.00 0.00 6 1000.7
20260508220100 37 273 4.8 0.0 0.00 0.00 0.00 7 1000.7
20260508215535 37 227 6.4 0.0 0.00 0.00 0.00 6 1000.8
20260508215012 37 284 6.4 0.0 0.00 0.00 0.00 6 1001.0
20260508214605 37 298 4.8 0.0 0.00 0.00 0.00 6 1001.0
20260508214030 36 245 4.8 0.0 0.00 0.00 0.00 7 1001.3
20260508213509 36 355 6.4 0.0 0.00 0.00 0.00 6 1001.3
20260508213054 36 340 6.4 0.0 0.00 0.00 0.00 7 1001.4
20260508212531 36 14 6.4 0.0 0.00 0.00 0.00 7 1001.4
20260508212018 36 284 8.0 0.0 0.00 0.00 0.00 7 1001.6
20260508211601 37 325 3.2 0.0 0.00 0.00 0.00 7 1001.4
20260508211039 37 324 4.8 0.0 0.00 0.00 0.00 7 1001.5
20260508210516 36 236 6.4 0.0 0.00 0.00 0.00 7 1001.6
20260508205538 36 311 6.4 0.0 0.00 0.00 0.00 7 1002.2
20260508205021 36 288 3.2 0.0 0.00 0.00 0.00 7 1002.1
20260508204517 37 270 1.6 0.0 0.00 0.00 0.00 7 1002.1
20260508204046 37 208 3.2 0.0 0.00 0.00 0.00 7 1002.1
20260508203522 36 11 6.4 0.0 0.00 0.00 0.00 7 1002.3
20260508203004 36 308 9.7 0.0 0.00 0.00 0.00 7 1002.6
20260508202555 36 355 6.4 0.0 0.00 0.00 0.00 7 1002.6
20260508202034 36 319 3.2 0.0 0.00 0.00 0.00 8 1002.7
20260508201511 37 331 3.2 0.0 0.00 0.00 0.00 8 1002.5
20260508201054 37 92 1.6 0.0 0.00 0.00 0.00 7 1002.4
20260508200532 37 269 1.6 0.0 0.00 0.00 0.00 9 1002.6
20260508200015 37 200 1.6 0.0 0.00 0.00 0.00 7 1002.7
20260508195558 36 182 1.6 0.0 0.00 0.00 0.00 9 1002.6
20260508195041 36 360 0.0 0.0 0.00 0.00 0.00 8 1002.9
20260508194518 36 281 1.6 0.0 0.00 0.00 0.00 9 1002.9
20260508194102 36 360 1.6 0.0 0.00 0.00 0.00 9 1003.0
20260508193540 36 360 1.6 0.0 0.00 0.00 0.00 9 1003.2
20260508193017 35 113 1.6 0.0 0.00 0.00 0.00 10 1003.3
20260508192601 34 73 3.2 0.0 0.00 0.00 0.00 11 1003.6
20260508192042 33 360 3.2 0.0 0.00 0.00 0.00 9 1003.7
20260508191532 35 111 1.6 0.0 0.00 0.00 0.00 9 1003.5
20260508191005 35 74 1.6 0.0 0.00 0.00 0.00 10 1003.7
20260508190548 35 333 1.6 0.0 0.00 0.00 0.00 10 1003.9
20260508190028 35 360 1.6 0.0 0.00 0.00 0.00 9 1003.8
20260508185502 35 360 1.6 0.0 0.00 0.00 0.00 10 1003.8
20260508185043 34 96 1.6 0.0 0.00 0.00 0.00 10 1004.1
20260508184523 32 271 3.2 0.0 0.00 0.00 0.00 10 1004.3
20260508184104 32 79 3.2 0.0 0.00 0.00 0.00 11 1004.4
20260508183538 32 75 3.2 0.0 0.00 0.00 0.00 11 1004.4
20260508183015 32 96 3.2 0.0 0.00 0.00 0.00 10 1004.5
20260508182600 32 83 3.2 0.0 0.00 0.00 0.00 11 1004.5
20260508182039 32 98 4.8 0.0 0.00 0.00 0.00 11 1004.5
20260508181522 32 360 3.2 0.0 0.00 0.00 0.00 11 1004.5
20260508181005 33 360 1.6 0.0 0.00 0.00 0.00 11 1004.5
20260508180547 32 360 1.6 0.0 0.00 0.00 0.00 10 1004.6
20260508180025 32 360 3.2 0.0 0.00 0.00 0.00 11 1004.7